Regional Weather Roundup
Issued by NWS Newport/Morehead, NC

Current Version | Previous Version | Text Only | Print | Product List | Glossary On
Versions: 1 2 3 4 5 6 7 8 9 10 11 12 13 14 15 16 17 18 19 20 21 22 23 24 25 26 27 28 29 30 31 32 33 34 35 36 37 38 39 40 41 42 43 44 45 46 47 48 49 50
000
ASUS42 KMHX 220725
RWRMHX
WEATHER ROUNDUP FOR EASTERN NORTH CAROLINA
NATIONAL WEATHER SERVICE NEWPORT/MOREHEAD CITY NC
300 AM EDT FRI SEP 22 2017

NOTE: "FAIR" INDICATES FEW OR NO CLOUDS BELOW 12,000 FEET
WITH NO SIGNIFICANT WEATHER AND/OR OBSTRUCTIONS TO VISIBILITY

NCZ015>017-031-032-045>047-102-103-220800-
NORTH COAST

CITY           SKY/WX    TMP DP  RH WIND       PRES   REMARKS
EDENTON        CLEAR     69  66  92 CALM      30.04F
ELIZABETH CITY CLEAR     66  66 100 CALM      30.03F
KITTY HAWK     SUNNY     67  64  92 CALM      30.01F
MANTEO         CLEAR     65  64  95 CALM      30.02F

$$

NCZ045>047-081-094-103-104-220800-
CENTRAL COAST

CITY           SKY/WX    TMP DP  RH WIND       PRES   REMARKS
FRISCO         CLEAR     68  67  96 NE3       30.02F

$$

NCZ095-097-098-100-101-220800-
SOUTHERN COAST

CITY           SKY/WX    TMP DP  RH WIND       PRES   REMARKS
BEAUFORT       CLEAR     70  70 100 CALM      30.02F
CEDAR ISLAND   NOT AVBL
JACKSONVILLE   CLEAR     67  67 100 NW5       30.02F
PINEY ISLAND     N/A    N/A N/A N/A E7        30.02F
WILMINGTON     CLEAR     68  67  96 CALM      30.03S


$$

NCZ011>013-027>030-043-044-078>080-089-090>093-098-220800-
COASTAL PLAIN

CITY           SKY/WX    TMP DP  RH WIND       PRES   REMARKS
AHOSKIE        CLEAR     64  64 100 CALM      30.04F
CLINTON        CLEAR     68  68  98 CALM      30.04S
ELIZABETHTOWN  NOT AVBL
GOLDSBORO      CLEAR     66  66 100 CALM      30.02F
GREENVILLE       N/A     68  68 100 CALM      30.05F FOG
HAVELOCK       PTCLDY    68  68 100 CALM      30.03F FOG
KENANSVILLE    CLEAR     64  64 100 CALM      30.05S FOG
KINSTON        PTCLDY    65  65 100 CALM      30.04F FOG
NEW BERN       MOCLDY    67  67 100 CALM      30.04F FOG
RICHLANDS      CLEAR     66  65  96 N3        30.04F FOG
ROCKY MOUNT    FOG       66  66 100 CALM      30.04F VSB 1/4
WASHINGTON     CLEAR     67  66  97 CALM      30.04F FOG
WHITEVILLE       N/A     65  64  97 CALM      30.02F FOG

$$

AMZ130-135-150-152-154-156-158-170-250-252-270-ANZ085-086-088-633-658-670-220800-
MARINE OBSERVATIONS

STATION/POSITION TIME  TEMP    WIND        PRES    WAVE   SWELL
                       AIR SEA DIR/SP/G            HT/PER HT/PER
                 (UTC) (F)     (DEG/KT/KT) (MB)    (FT/S) (FT/S)
CHESAPEAKE LIGHT NOT AVBL
64 E VA BEACH    0550   69 69  270/  6/  8 1017.1    7/11   7/11
DUCK             0700   72 75  220/  5/  5 1015.9
2 E DUCK         0700      75                N/A     4/11   3/11
OREGON INLET     0700   72 78  100/  1/  2 1016.3
13E OREGON INLT  0648      74                N/A     6/10   7/10
HATTERAS CG      0700   72 79  150/  1/  1 1016.6
DIAMOND BUOY     0550   75 75   30/  6/  8 1016.9    5/11   5/11
CAPE LOOKOUT     0700   77      80/  9/ 10 1016.0
BEAUFORT LAB     0700   74 76   90/  2/  4 1015.9
30 SE NEW RVR IN 0608   79      80/ 10/ 14 1016.4
30 SE NEW RVR IN NOT AVBL
27 SE WRIGHTSVLE 0608   78 80   80/ 10/ 14 1016.4
5 SE WRIGHTSVLE  0608   75 78   40/ 10/ 14 1016.5
225 S CAPE HAT   0650   78 80  120/  2/  4 1015.4    5/11   5/11
41 SE CHARLESTON 0700   80 81   CALM  /  2 1014.9

$$




USA.gov is the U.S. government's official web portal to all federal, state and local government web resources and services.